STARLINK-31991, 59963

Orbit data source: Space-Track

STARLINK-31991, 59963 is a payload satellite owned by SpaceX/Seattle (US) in LEO that was launched on Wed, 05 Jun 2024 UTC via an FALCON 9 launch vehicle from the Air Force Eastern Test Range (AFETR). Payload-class satellites include a variety of spacecraft equipped with specific instruments for various scientific and technological missions. These include communications satellites like Starlink; space stations such as the ISS; scientific satellites like the Hubble; Earth observation satellites from companies like Planet Labs, Umbra, and HawkEye 360; GPS; miniature CubeSats for education and research; and military/defense satellites.

Loading next visibility...
Identifier
59963, 2024-107U
Orbit
LEO
Country
Flag of USUS
Related business
Manufacturer
SpaceX/Seattle
Mission
Operational Commercial Communications
Bus & Motor
STARLINK V2M, Unknown motor
Mass
730 kg wet, ~700 kg dry
Launch date (UTC)
2024-06-05 (1 year ago)
Launch vehicle
FALCON 9
Launch site
Air Force Eastern Test Range (AFETR)
Object type
Payload
Rocket body
Debris
Shape & HBR
Box + 2 Pan, 17.7 m
Radar Cross Section
33.884 m², Large (>1 m²)

Expand to show TLE details & history
Last TLE update: 16 hours ago

TLE from 16 hours ago
0 STARLINK-31991
1 59963U 24107U   25301.34197038  .00003275  00000-0  12264-3 0  9997
2 59963  53.1586 320.2578 0001245  91.2371 268.8772 15.30200052 79536
Epoch: 2025-10-28T08:12Z
TLE epoch observation values (Epoch: 2025-10-28T08:12:26.240Z)
Latitude
-0.00007°
Longitude
160.21757°
Altitude
476.131 km
Speed
7.629 km/s
True Right ascension
21h 21m 01s
True Declination
0° 00' 00"
Sunlit
Object was in daylight at epoch
Visualization orbit readout
Latitude
Unknown
Longitude
Unknown
Altitude
Unknown
Speed
Unknown
Apparent Right ascension
Unknown
Apparent Declination
Unknown
Sunlit
N/A
Visualization observer readout
Local Sidereal Time
19:52:08
Azimuth
Unknown
Elevation
Unknown
Doppler factor
Unknown
Orbital elements
Apogee altitude
476.325 km
Perigee altitude
474.618 km
Semi-major axis
6,853.609 km
Eccentricity
0.00012
Inclination
53.1586°
RAAN
320.2578°
Arg. of periapsis
91.2371°
True anomaly
268.86294°
Mean anomaly
268.8772°
Eccentric anomaly
268.87007°
Mean motion
3.82529 °/min
Orbital period
94.11 mins
BSTAR
0.00012264
Loading maneuver chart data...
Computing Atmospheric mass density...
Loading historical data...
Loading historical data...
Loading historical data...
Loading historical data...
Loading historical data...
Loading historical data...
Loading historical data...

Documentation

Showing up to 5 results
|